CAPE
377 870 1149 1538 1954 1950 2039 2040 1545 1626 1992 2177 2109 2144 2097 1932 1967 2014 1900 1721 1692 1572 1638 1172 843 722 702 801 811 968 1085 1180 1384 1176 1254 1234 1008 806 1061 1020 919 881 1055
436 1006 1479 1808 1840 1745 1599 1852 2180 2062 1593 2024 1966 2125 2114 2140 2109 2002 1941 1783 1762 1822 1189 923 1480 1576 1411 1076 1120 1261 1344 1271 1038 1305 1271 1266 1262 1281 1240 1193 1229 1202 1226
565 1019 1121 1370 1792 1457 1426 1430 1632 1918 1880 1966 2029 1931 1892 1836 2030 2000 1955 1808 1666 1849 1555 1351 1493 1442 1530 1430 1437 1392 1054 1124 1368 906 965 1028 932 1201 929 545 911 1314 1285
754 1096 1060 1462 1384 1394 1122 1048 1137 1567 1727 1883 1784 1674 2033 2101 1877 1904 2035 1798 1747 1931 1610 1556 1724 1471 1525 1095 575 676 703 1248 1264 1104 759 457 1010 1119 1387 1436 876 1333 1338
922 1111 1334 1039 1878 1306 1537 1827 1682 1131 1659 1672 1355 1943 2063 1830 2030 2019 1840 1974 2049 1844 1676 1532 1491 1311 1632 1681 1402 891 1005 1252 1242 1020 799 553 1190 1171 1325 1490 1347 1344 1356
973 730 872 1696 1694 1753 1807 1763 1686 1635 1453 1611 1392 1938 1961 2024 1868 1929 1917 2063 1973 1760 1498 1458 1440 1311 1404 1417 1216 1552 1328 1394 1098 1023 971 782 545 753 1232 1109 724 996 929
455 1107 1530 1626 1712 1857 1683 1759 1586 1547 1728 1646 1670 1819 1953 2157 2160 1876 1729 1735 1889 1906 1630 1508 1358 1366 1449 1693 1733 1564 1295 1176 668 1017 1028 964 562 555 618 676 1475 1512 1389
370 1211 1463 1478 1513 1712 1729 1763 1723 1420 1207 1341 1592 1556 2015 1744 1862 2299 1978 1686 1587 1641 1625 1521 1355 1318 1519 1843 1826 1175 1120 1048 767 1010 718 1220 671 548 553 624 1061 1185 1198
663 1060 1357 1468 1462 1640 1465 1516 1589 1387 1374 1531 1634 1770 1865 1395 1403 1909 2105 2047 1807 1741 1460 1343 1235 1405 1468 1565 1332 1000 1127 1001 826 1036 835 1160 566 605 643 735 646 645 600
632 1045 1067 1203 1153 1233 1037 1496 1395 1484 1323 1533 1662 1766 1754 1171 1502 1870 1776 1683 1695 1635 1588 1394 1297 1225 1298 1425 1350 951 1172 974 491 708 336 1306 846 683 815 895 638 619 730
710 771 930 1224 1039 1163 1228 1327 1316 1258 1312 1337 1528 1503 980 864 1192 1615 1951 1734 1774 1639 1521 1278 1192 1210 1323 1479 1409 1682 1027 260 0 453 846 1396 1637 951 595 980 1160 494 621
355 535 837 838 827 985 1208 948 1005 1066 1076 1174 1029 854 796 1087 1355 1865 1998 1972 1498 674 993 1252 1019 753 480 703 1128 1772 587 118 115 186 888 820 1737 1131 631 602 364 252 214
165 523 700 549 688 864 892 575 617 586 596 666 708 691 696 1011 1119 1013 1314 1137 367 100 558 335 366 447 332 302 388 746 606 344 514 425 351 767 1403 1120 709 505 492 495 457
126 309 416 458 466 624 446 455 362 286 428 505 638 674 685 688 689 496 700 407 47 0 102 360 602 700 797 782 630 773 622 581 256 479 128 661 1335 1048 876 1096 768 542 542
100 201 226 323 297 364 437 459 443 473 326 391 500 504 514 414 275 185 237 139 190 0 78 410 470 560 560 409 880 494 752 574 132 288 43 432 1043 1471 1081 736 800 728 743
106 148 269 228 215 142 205 376 445 445 375 455 558 417 250 305 200 176 19 0 86 0 11 324 691 641 382 193 413 623 576 430 59 112 244 353 539 503 901 780 772 682 661
129 188 245 273 268 81 166 326 362 443 336 243 351 303 128 217 32 11 2 256 269 454 602 594 869 498 207 308 389 495 478 336 0 55 216 216 219 467 763 857 940 936 842
133 207 259 369 289 192 198 246 280 354 254 179 112 295 344 117 72 8 173 215 278 411 634 767 690 562 272 338 227 261 368 311 200 140 94 95 163 256 278 401 773 854 843
155 172 211 385 447 284 204 185 206 233 302 391 426 401 352 96 462 404 302 372 472 460 602 695 592 642 667 533 461 454 359 310 338 346 306 175 139 224 308 290 293 378 764
191 207 282 395 420 301 233 151 133 156 410 366 358 328 308 465 681 496 480 718 822 558 550 687 726 504 570 355 453 556 581 534 437 368 386 324 243 253 254 313 400 510 574
202 253 262 248 245 207 218 143 111 169 488 527 622 521 455 633 582 422 630 676 697 584 609 839 945 807 619 302 472 724 422 302 451 440 358 418 423 388 467 479 518 625 719
178 214 201 182 258 192 178 155 125 159 294 396 480 652 662 569 294 411 582 607 686 706 801 888 799 501 324 493 648 450 380 156 179 161 226 360 420 359 446 507 596 707 758
139 156 144 220 296 167 187 176 156 173 228 311 385 430 631 468 157 259 437 395 614 621 676 784 457 566 609 557 616 648 628 503 458 49 187 218 342 420 435 398 384 492 604
100 101 117 131 266 158 178 195 164 128 123 321 353 350 409 644 666 450 384 498 441 419 304 769 765 768 814 840 634 706 565 688 876 337 97 164 174 265 288 218 195 292 412
69 0 59 35 141 180 207 235 193 176 133 97 298 415 512 698 870 751 508 421 531 367 377 573 908 884 1001 996 934 1016 600 630 686 597 338 235 153 59 44 59 102 139 218
31 0 0 0 100 169 155 142 173 197 182 197 190 385 398 624 648 802 759 307 356 402 258 533 751 776 775 716 906 852 982 772 924 737 396 473 384 324 496 608 426 521 657
CIN
-58 -21 -3 -1 0 0 0 0 -3 -1 0 0 0 0 0 -0 0 0 0 0 0 0 0 -0 -6 -7 -4 0 -0 -0 -0 0 -0 -0 -0 -0 0 -0 -0 -0 -2 -0 -0
-78 -15 -3 -0 0 0 -3 0 0 -1 -7 0 -0 0 0 -0 0 0 0 0 -0 -0 -0 -4 0 0 -0 -3 -2 -0 -0 -0 -0 0 0 -0 -0 0 0 0 0 -0 0
-62 -14 -5 -4 0 -4 -8 -6 -0 -0 0 0 0 0 -0 -1 0 0 0 -0 0 -0 -0 0 -0 0 -0 -0 -0 -0 -0 -2 0 -1 -2 -1 -2 -0 -0 -17 -1 -0 0
-41 -6 -7 -2 -3 -4 -20 -21 -12 -0 -2 -0 -1 -2 -0 0 -6 -1 -0 -0 -0 -0 -0 -0 -0 -0 -0 -2 -31 -15 -8 -0 -0 -2 -13 -31 -0 0 0 0 -3 0 0
-23 -5 -0 -17 0 -7 -1 0 -0 -3 -1 -0 -4 -0 0 -2 -1 -2 -2 -0 -0 0 -0 -0 -1 -4 -0 -0 -0 -3 -0 0 -1 -4 -11 -21 -2 -0 -0 0 0 0 -0
-15 -25 -19 0 0 0 0 0 -0 0 -0 -1 -3 -0 0 -1 -2 -1 -0 0 0 -2 -1 -5 -0 -5 -1 -0 -1 0 -0 0 -7 -8 -6 -7 -28 -4 -0 0 -13 -1 -3
-84 -10 -0 -0 0 0 -1 -0 -1 -0 0 -0 0 0 0 0 -0 0 -0 -0 -0 0 -4 -1 -3 -7 -4 0 -0 0 0 -5 -29 -13 -8 -6 -28 -30 -32 -19 0 -0 0
-99 -5 -0 -1 -1 -0 0 0 0 -2 -0 -1 -0 -0 0 -4 -2 -0 -0 0 0 -0 -1 -6 -6 -9 -4 -0 -0 -3 -8 -12 -31 -16 -31 -2 -26 -41 -42 -25 -0 0 0
-37 -8 -1 -1 -0 -0 -1 -0 -0 -1 -0 -0 -0 0 -2 -8 -6 -0 0 0 -0 -0 -2 -8 -11 -7 -4 -1 -6 -18 -16 -22 -32 -16 -26 -4 -44 -39 -31 -19 -31 -35 -42
-28 -3 -3 -2 -3 -2 -6 -0 -0 0 -1 0 0 -1 -4 -4 -5 0 -2 -1 0 0 -4 -7 -18 -19 -13 -7 -10 -28 -17 -28 -64 -47 -81 -3 -21 -30 -23 -17 -40 -52 -42
-12 -12 -4 -2 -6 -6 -2 -0 -0 -1 -0 -0 -1 -2 -16 -25 -15 -5 -1 -0 -0 -2 -15 -25 -30 -31 -27 -20 -10 -3 -28 -111 0 -77 -33 -1 -0 -14 -60 -18 -8 -108 -85
-51 -33 -4 -7 -9 -5 -2 -9 -8 -4 -5 -5 -14 -30 -39 -26 -14 -2 -0 -0 -7 -65 -46 -38 -48 -74 -88 -76 -44 -15 -79 -151 -149 -123 -32 -29 -0 -10 -68 -83 -151 -188 -194
-100 -36 -13 -28 -23 -10 -11 -19 -22 -23 -20 -29 -41 -50 -59 -48 -42 -54 -33 -38 -101 -143 -94 -106 -122 -120 -114 -118 -114 -81 -105 -117 -93 -98 -107 -50 -1 -16 -80 -128 -147 -149 -151
-97 -63 -52 -37 -42 -29 -24 -28 -37 -41 -44 -50 -59 -56 -63 -65 -80 -97 -67 -100 -148 0 -127 -102 -92 -94 -92 -82 -92 -93 -109 -106 -138 -103 -200 -96 -14 -54 -85 -55 -116 -158 -150
-86 -74 -84 -67 -63 -54 -36 -36 -38 -35 -59 -75 -74 -78 -82 -88 -99 -128 -110 -128 -120 0 -101 -101 -106 -91 -93 -98 -90 -94 -91 -94 -180 -168 -283 -183 -86 -23 -77 -143 -128 -141 -128
-89 -82 -74 -82 -77 -88 -58 -45 -43 -49 -64 -73 -72 -86 -101 -89 -101 -96 -53 0 -140 0 -130 -122 -88 -79 -90 -78 -73 -66 -73 -106 -214 -227 -234 -237 -203 -225 -141 -165 -159 -166 -164
-81 -83 -69 -75 -82 -107 -58 -50 -55 -58 -73 -86 -81 -92 -109 -108 -127 -139 -31 -96 -126 -125 -112 -98 -76 -63 -73 -64 -56 -61 -69 -109 -0 -264 -240 -270 -291 -249 -195 -171 -147 -144 -162
-81 -76 -71 -56 -59 -72 -58 -54 -55 -60 -67 -87 -107 -89 -91 -124 -141 -23 -99 -98 -124 -115 -96 -79 -67 -46 -69 -56 -73 -97 -100 -129 -169 -211 -271 -317 -299 -295 -298 -268 -188 -180 -181
-89 -94 -70 -54 -49 -58 -63 -59 -62 -63 -52 -55 -62 -73 -85 -117 -89 -91 -93 -111 -115 -98 -87 -67 -62 -60 -49 -62 -70 -111 -143 -154 -164 -178 -195 -257 -305 -293 -282 -300 -301 -272 -197
-80 -72 -68 -54 -55 -61 -85 -82 -70 -66 -54 -52 -62 -67 -62 -65 -71 -78 -87 -69 -71 -84 -66 -64 -57 -72 -66 -82 -65 -80 -115 -140 -187 -199 -195 -231 -263 -293 -303 -287 -276 -245 -226
-82 -64 -75 -64 -50 -66 -69 -60 -64 -39 -45 -48 -41 -46 -52 -54 -59 -68 -59 -60 -68 -64 -62 -66 -59 -47 -53 -101 -58 -48 -114 -179 -175 -218 -265 -248 -243 -266 -257 -276 -260 -232 -195
-90 -74 -67 -72 -59 -59 -70 -73 -62 -58 -52 -49 -57 -42 -49 -49 -74 -64 -53 -60 -57 -52 -46 -56 -53 -44 -69 -95 -51 -87 -67 -136 -187 -253 -270 -256 -255 -296 -265 -256 -234 -196 -178
-99 -93 -87 -78 -65 -77 -69 -76 -75 -81 -72 -44 -41 -41 -44 -57 -87 -79 -67 -74 -63 -58 -50 -52 -73 -54 -42 -81 -115 -62 -37 -69 -144 -271 -248 -266 -244 -261 -261 -266 -242 -222 -202
-107 -110 -93 -81 -67 -82 -93 -56 -52 -48 -38 -42 -40 -45 -36 -38 -46 -63 -63 -58 -70 -75 -74 -51 -64 -69 -67 -43 -91 -114 -128 -115 -66 -121 -252 -255 -278 -241 -252 -269 -281 -260 -225
-121 0 -102 -93 -87 -80 -72 -55 -53 -50 -72 -85 -53 -37 -32 -33 -29 -37 -56 -55 -48 -62 -70 -57 -49 -56 -69 -59 -60 -73 -86 -108 -162 -133 -119 -176 -226 -286 -335 -320 -293 -243 -248
-136 0 0 0 -83 -86 -93 -93 -60 -50 -64 -63 -62 -45 -40 -33 -32 -37 -47 -77 -66 -68 -72 -66 -62 -59 -56 -76 -74 -73 -61 -57 -54 -81 -116 -124 -140 -169 -198 -202 -217 -199 -190
Wind_Speed
28 28 28 29 28 27 27 26 26 25 26 22 21 22 19 18 20 19 19 19 20 20 20 23 23 22 19 14 16 4 6 4 5 2 2 1 4 5 4 4 4 10 27
31 28 28 28 27 26 25 24 24 24 23 21 21 15 16 19 20 20 21 22 22 21 23 22 22 18 17 11 5 4 4 2 1 2 1 3 7 6 1 5 3 5 16
30 29 27 27 25 24 24 23 23 23 23 22 20 22 23 22 23 23 23 21 20 20 19 19 16 17 17 14 5 1 1 4 2 1 2 6 6 1 1 5 5 9 8
29 28 27 26 25 24 23 23 23 23 22 23 24 24 23 24 23 21 21 20 22 18 18 16 16 17 15 14 4 2 8 8 7 5 4 8 8 4 7 8 8 5 19
26 27 26 26 24 24 24 23 23 24 23 24 24 23 23 22 21 20 19 19 19 19 18 15 10 6 12 9 11 17 14 13 8 5 6 9 11 9 8 3 1 18 19
26 27 26 26 25 24 23 23 24 24 24 24 24 23 23 23 21 18 18 18 17 19 17 7 4 15 18 18 21 18 16 16 11 8 9 9 9 8 6 1 6 17 14
28 27 26 26 25 24 23 22 22 23 23 23 23 24 23 22 19 17 17 16 15 15 11 3 3 10 25 21 23 18 19 16 10 7 5 8 10 8 7 11 13 13 13
29 27 26 25 24 24 23 23 23 23 24 24 24 24 24 24 25 20 14 12 6 7 2 2 2 4 17 24 22 16 19 16 9 7 6 8 7 10 12 16 14 8 7
28 27 25 24 24 23 23 23 23 23 25 25 25 25 25 27 27 14 3 7 4 5 6 5 3 3 10 19 20 23 20 18 10 8 9 10 9 13 15 15 13 12 14
27 26 25 24 24 24 24 24 24 25 24 25 26 27 24 27 28 27 10 6 6 8 12 8 9 9 6 22 19 23 23 19 12 9 9 11 12 14 15 15 15 15 16
26 25 24 24 25 24 24 24 24 24 25 26 27 27 21 25 27 25 18 14 11 13 12 11 11 10 7 14 19 21 19 18 14 11 10 12 16 15 15 15 16 16 16
27 26 25 25 25 25 25 25 24 25 25 27 27 26 25 23 24 23 22 19 14 13 15 13 12 11 11 11 12 17 17 19 16 13 12 13 14 14 16 17 16 16 16
27 26 25 25 25 25 26 26 25 26 27 27 27 24 23 25 17 18 14 14 13 12 14 13 13 13 13 14 13 14 18 18 17 16 16 16 16 16 16 16 16 15 15
28 26 26 25 26 26 26 26 26 26 26 27 27 23 23 24 21 19 15 15 11 14 16 14 13 13 13 16 16 17 19 17 17 17 17 17 16 16 16 15 15 14 13
28 27 26 26 27 26 26 27 26 25 26 25 24 23 25 23 21 19 19 16 13 15 15 13 13 12 11 14 17 18 17 16 16 16 16 17 17 16 15 15 14 13 12
29 27 26 26 27 26 27 26 26 25 24 24 23 25 24 23 20 19 18 16 16 16 15 14 13 12 11 12 14 17 16 15 16 16 16 16 16 16 15 14 14 13 12
29 28 26 27 26 26 26 25 25 24 23 24 25 24 23 22 19 17 17 17 17 15 13 12 11 11 11 11 12 15 17 16 16 16 15 15 15 15 15 14 14 13 13
29 28 27 26 25 25 25 25 24 23 24 24 23 23 22 21 20 20 19 18 16 14 13 12 11 11 13 12 16 17 18 17 17 16 16 16 15 14 14 13 13 12 11
29 28 27 26 25 25 25 24 23 22 22 23 23 23 23 22 20 20 19 18 17 15 12 12 12 13 13 14 15 16 17 18 18 17 17 16 16 15 14 13 12 11 10
28 27 26 26 25 26 25 24 24 22 21 23 23 23 22 22 21 20 19 16 14 15 12 13 13 13 15 14 14 15 16 18 19 18 17 16 16 15 14 14 12 11 10
28 26 26 26 27 26 24 25 25 24 22 20 22 22 22 21 20 19 18 16 13 15 14 13 13 13 13 13 13 13 14 16 19 19 18 17 16 15 14 14 13 12 10
28 27 26 26 25 26 24 24 24 24 22 21 20 20 20 20 20 21 20 18 15 15 14 13 12 13 13 11 12 13 15 16 16 17 17 18 18 16 15 14 13 12 11
29 29 28 27 26 24 26 16 10 19 19 21 21 21 21 20 20 22 20 20 18 17 17 14 12 12 12 12 11 14 16 17 16 16 16 16 18 18 16 14 13 12 10
30 31 30 28 27 25 23 23 22 23 22 22 20 21 20 20 20 20 21 20 21 18 17 16 15 11 13 10 14 12 13 14 17 17 16 16 17 18 17 16 15 14 11
28 28 30 29 28 26 23 24 25 23 23 20 20 20 20 20 20 21 20 18 20 18 15 15 13 12 13 12 11 14 13 12 12 16 18 16 17 17 17 17 17 17 18
20 30 18 25 29 28 24 24 23 24 23 23 22 22 21 21 20 21 21 22 19 17 20 18 14 12 11 13 13 12 12 13 13 14 16 17 18 17 18 18 19 21 23
Wind_Direction
160 155 146 130 128 125 119 114 108 100 97 67 60 64 52 47 58 53 51 49 49 49 49 57 60 58 53 47 49 150 45 40 35 59 61 119 167 170 160 151 148 156 120
143 151 145 125 120 109 107 108 94 100 91 69 67 40 41 56 59 58 57 61 59 54 59 61 60 50 48 41 39 45 46 93 135 34 119 152 161 166 112 161 146 24 35
127 144 140 124 113 112 115 116 115 103 100 90 68 77 84 73 78 77 70 62 57 58 54 57 48 50 49 42 28 50 125 168 162 34 167 159 159 125 137 161 163 23 154
115 129 129 122 118 120 120 118 118 125 129 93 99 97 85 90 83 72 72 60 67 56 55 51 49 53 45 39 27 174 170 173 173 177 180 171 163 160 164 162 20 165 137
108 122 123 123 128 122 121 127 120 120 134 112 105 92 86 80 70 65 62 61 62 63 56 48 32 183 168 181 171 156 163 165 173 181 178 168 167 164 162 168 25 140 138
108 121 123 127 129 132 131 130 123 116 125 107 96 90 89 87 74 57 60 59 60 60 55 27 218 170 161 158 149 155 158 159 172 181 177 177 175 178 184 265 172 144 152
116 132 130 131 130 133 134 138 138 127 123 107 101 99 93 86 67 57 56 57 57 52 38 360 228 184 140 150 141 155 151 160 179 190 200 185 171 179 183 167 155 152 155
123 135 136 133 132 131 134 138 137 130 120 114 104 104 105 94 93 67 49 48 35 32 325 242 247 14 156 126 141 163 151 161 191 205 205 191 191 175 168 156 158 168 173
132 136 138 136 138 137 132 138 132 125 113 113 106 107 112 118 105 49 333 27 6 12 212 207 219 206 188 155 148 134 148 156 194 208 199 192 187 172 161 158 163 164 153
140 139 134 139 139 135 133 133 126 119 114 110 109 114 147 132 116 108 202 218 214 206 188 204 198 194 208 141 148 127 131 151 187 213 207 191 181 170 163 160 158 153 147
146 143 142 137 133 138 132 126 121 122 115 113 117 121 154 141 130 133 163 182 191 186 195 197 192 194 204 166 147 139 146 152 177 205 207 193 175 170 168 165 156 152 146
142 144 139 134 133 132 133 121 123 124 128 125 129 131 141 151 146 145 146 161 177 190 185 192 191 197 191 187 183 163 160 148 167 190 194 187 178 174 166 159 154 150 146
142 141 138 133 135 133 124 123 122 115 123 131 131 144 148 143 176 161 174 175 182 188 189 194 195 194 190 183 184 178 160 159 165 174 179 177 175 170 165 160 157 153 148
144 142 137 135 137 135 120 119 124 117 130 134 131 152 154 147 158 161 178 173 193 183 181 193 200 197 194 187 180 165 158 162 166 171 175 174 173 171 167 164 160 155 153
144 144 138 134 138 139 123 118 130 133 133 140 148 152 146 153 157 161 167 177 183 184 188 192 196 205 206 195 183 172 171 173 172 174 173 174 174 173 170 168 164 159 158
142 144 144 137 137 135 132 125 134 142 144 149 156 149 148 151 162 168 177 185 181 179 182 186 192 203 202 198 190 185 187 186 181 179 176 175 175 173 173 169 164 160 156
148 145 148 141 140 136 139 143 147 142 147 150 152 154 148 153 165 177 182 179 179 189 202 205 208 217 210 209 196 190 189 189 186 183 183 181 179 177 175 169 164 157 153
154 148 148 147 146 142 141 150 155 158 145 148 150 150 154 157 160 166 174 180 188 193 204 203 207 206 201 205 186 183 184 188 188 188 189 188 186 183 179 176 171 167 161
160 154 153 157 154 151 150 158 167 166 161 152 151 153 152 156 161 166 179 184 188 196 207 207 207 205 204 197 195 196 189 183 188 190 189 190 190 188 187 184 180 177 172
166 160 158 165 162 150 160 164 165 170 177 159 153 154 149 160 168 169 183 197 209 201 214 200 200 199 197 206 210 206 201 190 185 188 191 193 191 191 192 190 190 187 188
166 158 153 151 149 151 151 157 156 162 184 189 175 172 168 172 176 183 198 202 217 207 209 218 216 217 220 229 220 217 209 202 192 193 198 200 200 198 203 200 198 196 200
162 163 157 150 146 162 159 160 176 174 187 195 198 191 189 194 193 181 192 197 213 213 217 225 231 216 220 244 229 225 209 209 211 208 209 205 205 209 207 208 206 204 201
167 163 163 158 158 151 161 106 242 213 210 206 203 198 184 188 198 194 201 201 207 216 212 226 237 237 238 241 250 219 206 202 218 223 229 229 216 211 213 224 223 203 196
169 174 173 163 164 157 146 149 146 159 181 199 211 208 205 199 200 209 210 214 206 226 232 237 237 263 238 264 233 248 237 238 220 218 241 245 240 220 232 234 235 245 221
163 165 175 172 167 163 154 159 168 175 199 222 215 219 219 216 214 215 224 238 226 238 259 255 269 282 263 258 265 235 239 255 263 233 223 240 243 249 267 251 247 257 273
166 174 146 160 176 173 161 162 163 175 187 204 206 200 214 223 227 215 221 222 246 256 240 248 275 299 307 281 264 259 258 249 255 248 236 240 242 255 279 292 294 296 312